N404PW KART-KRDG

Flight info

Callsign N404PW
Flight time 1h 15m
Altitude 9000
Route SYR CFB LVZ
Aircraft C404/L-SDFR/C

Departure

Time 2026-04-25 08:08
Airport Watertown International Airport (KART)

Arrival

Time 2026-04-25 09:23
Airport Reading Regional Airport (Carl A Spaatz Field) (KRDG)
Time Latitude Longitude Altitude Speed Heading
2026-04-25 07:56 43.99358 -76.02468 320 ft 0 kts 189°
2026-04-25 08:04 43.99353 -76.02469 329 ft 3 kts 189°
2026-04-25 08:04 43.99337 -76.02473 320 ft 0 kts 195°
2026-04-25 08:04 43.99330 -76.02480 322 ft 3 kts 231°
2026-04-25 08:05 43.99321 -76.02551 320 ft 12 kts 266°
2026-04-25 08:05 43.99320 -76.02673 319 ft 13 kts 276°
2026-04-25 08:05 43.99325 -76.02800 318 ft 13 kts 270°
2026-04-25 08:05 43.99327 -76.02933 318 ft 14 kts 272°
2026-04-25 08:06 43.99326 -76.03036 317 ft 4 kts 245°
2026-04-25 08:06 43.99300 -76.03055 317 ft 5 kts 182°
2026-04-25 08:06 43.99267 -76.03057 317 ft 5 kts 181°
2026-04-25 08:06 43.99236 -76.03048 317 ft 4 kts 133°
2026-04-25 08:07 43.99229 -76.03008 318 ft 9 kts 96°
2026-04-25 08:07 43.99219 -76.02750 319 ft 46 kts 93°
2026-04-25 08:07 43.99195 -76.02150 320 ft 78 kts 92°
2026-04-25 08:07 43.99165 -76.01301 376 ft 95 kts 94°
2026-04-25 08:08 43.99077 -76.00332 500 ft 106 kts 94°
2026-04-25 08:08 43.98951 -75.99349 777 ft 107 kts 103°
2026-04-25 08:08 43.98552 -75.98383 944 ft 123 kts 133°
2026-04-25 08:08 43.97800 -75.97858 1275 ft 125 kts 174°
2026-04-25 08:09 43.97030 -75.98387 1527 ft 137 kts 223°
2026-04-25 08:09 43.96405 -75.99425 1739 ft 143 kts 230°
2026-04-25 08:09 43.95782 -76.00521 1950 ft 144 kts 223°
2026-04-25 08:09 43.95162 -76.01598 2237 ft 142 kts 225°
2026-04-25 08:10 43.94510 -76.02589 2513 ft 135 kts 209°
2026-04-25 08:10 43.93685 -76.03096 2763 ft 127 kts 184°
2026-04-25 08:10 43.92818 -76.03332 3022 ft 126 kts 184°
2026-04-25 08:10 43.91955 -76.03544 3272 ft 126 kts 184°
2026-04-25 08:11 43.91090 -76.03745 3511 ft 126 kts 182°
2026-04-25 08:11 43.90224 -76.03941 3757 ft 126 kts 182°
2026-04-25 08:11 43.89358 -76.04136 3992 ft 127 kts 184°
2026-04-25 08:11 43.88484 -76.04331 4221 ft 128 kts 185°
2026-04-25 08:12 43.87600 -76.04531 4452 ft 129 kts 185°
2026-04-25 08:12 43.86711 -76.04731 4694 ft 130 kts 186°
2026-04-25 08:12 43.85814 -76.04932 4929 ft 131 kts 187°
2026-04-25 08:12 43.84911 -76.05136 5158 ft 132 kts 188°
2026-04-25 08:13 43.84003 -76.05340 5389 ft 132 kts 188°
2026-04-25 08:13 43.83091 -76.05544 5619 ft 133 kts 189°
2026-04-25 08:13 43.82173 -76.05751 5849 ft 134 kts 189°
2026-04-25 08:14 43.80323 -76.06166 6313 ft 135 kts 190°
2026-04-25 08:14 43.79392 -76.06375 6533 ft 136 kts 191°
2026-04-25 08:14 43.78454 -76.06586 6737 ft 137 kts 191°
2026-04-25 08:14 43.77513 -76.06797 6951 ft 138 kts 192°
2026-04-25 08:15 43.76561 -76.07009 7155 ft 139 kts 191°
2026-04-25 08:15 43.75602 -76.07225 7346 ft 140 kts 194°
2026-04-25 08:15 43.74637 -76.07440 7550 ft 141 kts 194°
2026-04-25 08:15 43.73661 -76.07660 7744 ft 143 kts 195°
2026-04-25 08:16 43.72673 -76.07881 7925 ft 145 kts 196°
2026-04-25 08:16 43.71680 -76.08102 8132 ft 144 kts 195°
2026-04-25 08:16 43.70691 -76.08325 8321 ft 144 kts 195°
2026-04-25 08:16 43.69701 -76.08545 8521 ft 144 kts 194°
2026-04-25 08:17 43.68713 -76.08767 8711 ft 145 kts 195°
2026-04-25 08:17 43.67709 -76.08990 8910 ft 147 kts 196°
2026-04-25 08:17 43.66678 -76.09226 8992 ft 159 kts 196°
2026-04-25 08:17 43.65531 -76.09498 8992 ft 174 kts 195°
2026-04-25 08:18 43.64296 -76.09778 8993 ft 184 kts 194°
2026-04-25 08:18 43.63004 -76.10063 8990 ft 191 kts 194°
2026-04-25 08:18 43.61681 -76.10357 8988 ft 193 kts 194°
2026-04-25 08:18 43.60353 -76.10651 8980 ft 193 kts 194°
2026-04-25 08:19 43.59026 -76.10946 8979 ft 193 kts 195°
2026-04-25 08:19 43.57701 -76.11241 8979 ft 193 kts 194°
2026-04-25 08:19 43.56373 -76.11537 8970 ft 193 kts 195°
2026-04-25 08:19 43.55046 -76.11833 8971 ft 193 kts 195°
2026-04-25 08:20 43.53720 -76.12127 8969 ft 193 kts 195°
2026-04-25 08:20 43.52395 -76.12422 8953 ft 193 kts 195°
2026-04-25 08:20 43.51067 -76.12718 8945 ft 193 kts 195°
2026-04-25 08:20 43.49739 -76.13012 8946 ft 193 kts 195°
2026-04-25 08:21 43.48413 -76.13306 8948 ft 193 kts 195°
2026-04-25 08:21 43.47088 -76.13602 8947 ft 193 kts 195°
2026-04-25 08:21 43.45765 -76.13894 8944 ft 193 kts 195°
2026-04-25 08:21 43.44441 -76.14187 8944 ft 193 kts 195°
2026-04-25 08:22 43.43118 -76.14481 8942 ft 192 kts 194°
2026-04-25 08:22 43.41799 -76.14774 8944 ft 192 kts 194°
2026-04-25 08:22 43.40483 -76.15064 8944 ft 191 kts 194°
2026-04-25 08:22 43.39170 -76.15355 8943 ft 191 kts 194°
2026-04-25 08:23 43.37859 -76.15645 8936 ft 190 kts 194°
2026-04-25 08:23 43.36552 -76.15934 8935 ft 190 kts 194°
2026-04-25 08:23 43.35246 -76.16223 8934 ft 190 kts 194°
2026-04-25 08:23 43.33946 -76.16510 8933 ft 189 kts 194°
2026-04-25 08:24 43.32651 -76.16796 8930 ft 188 kts 194°
2026-04-25 08:24 43.31359 -76.17081 8932 ft 188 kts 194°
2026-04-25 08:24 43.30070 -76.17366 8927 ft 187 kts 194°
2026-04-25 08:24 43.28786 -76.17649 8926 ft 187 kts 194°
2026-04-25 08:25 43.27489 -76.17935 8929 ft 190 kts 194°
2026-04-25 08:25 43.26177 -76.18226 8944 ft 192 kts 194°
2026-04-25 08:25 43.24853 -76.18517 8945 ft 194 kts 194°
2026-04-25 08:25 43.23519 -76.18811 8949 ft 195 kts 194°
2026-04-25 08:26 43.22179 -76.19106 8953 ft 195 kts 194°
2026-04-25 08:26 43.20835 -76.19402 8952 ft 196 kts 194°
2026-04-25 08:26 43.19481 -76.19700 8953 ft 199 kts 194°
2026-04-25 08:26 43.18113 -76.20001 8953 ft 200 kts 194°
2026-04-25 08:27 43.16732 -76.20305 8954 ft 201 kts 194°
2026-04-25 08:27 43.15329 -76.20431 8952 ft 205 kts 181°
2026-04-25 08:27 43.13905 -76.20307 8955 ft 205 kts 181°
2026-04-25 08:27 43.12477 -76.20204 8954 ft 206 kts 181°
2026-04-25 08:28 43.11044 -76.20108 8955 ft 206 kts 181°
2026-04-25 08:28 43.09617 -76.20011 8954 ft 206 kts 181°
2026-04-25 08:28 43.08186 -76.19913 8955 ft 206 kts 181°
2026-04-25 08:28 43.06756 -76.19814 8953 ft 206 kts 181°
2026-04-25 08:29 43.05320 -76.19716 8954 ft 206 kts 181°
2026-04-25 08:29 43.03887 -76.19618 8954 ft 206 kts 181°
2026-04-25 08:29 43.02456 -76.19518 8954 ft 206 kts 181°
2026-04-25 08:29 43.01024 -76.19420 8953 ft 206 kts 181°
2026-04-25 08:30 42.99589 -76.19322 8952 ft 206 kts 181°
2026-04-25 08:30 42.98155 -76.19223 8938 ft 206 kts 181°
2026-04-25 08:30 42.96726 -76.19126 8936 ft 205 kts 182°
2026-04-25 08:30 42.95305 -76.19027 8935 ft 204 kts 181°
2026-04-25 08:31 42.93888 -76.18931 8933 ft 204 kts 182°
2026-04-25 08:31 42.92474 -76.18837 8933 ft 203 kts 181°
2026-04-25 08:31 42.91058 -76.18737 8930 ft 204 kts 181°
2026-04-25 08:31 42.89638 -76.18640 8930 ft 205 kts 181°
2026-04-25 08:32 42.88676 -76.18574 8916 ft 205 kts 181°
2026-04-25 08:32 42.87252 -76.18478 8915 ft 205 kts 181°
2026-04-25 08:32 42.85835 -76.18380 8917 ft 204 kts 181°
2026-04-25 08:32 42.84412 -76.18283 8918 ft 205 kts 182°
2026-04-25 08:33 42.82987 -76.18187 8913 ft 205 kts 182°
2026-04-25 08:33 42.81561 -76.18089 8912 ft 205 kts 181°
2026-04-25 08:33 42.80136 -76.17991 8914 ft 205 kts 181°
2026-04-25 08:33 42.78709 -76.17895 8910 ft 206 kts 181°
2026-04-25 08:34 42.77277 -76.17797 8914 ft 206 kts 181°
2026-04-25 08:34 42.75844 -76.17698 8913 ft 206 kts 181°
2026-04-25 08:34 42.74414 -76.17601 8910 ft 205 kts 181°
2026-04-25 08:34 42.72985 -76.17504 8909 ft 206 kts 181°
2026-04-25 08:35 42.71577 -76.17407 8906 ft 205 kts 181°
2026-04-25 08:35 42.70135 -76.17312 8907 ft 205 kts 182°
2026-04-25 08:35 42.68729 -76.17215 8906 ft 205 kts 181°
2026-04-25 08:35 42.67303 -76.17118 8905 ft 205 kts 181°
2026-04-25 08:36 42.65858 -76.17019 8904 ft 205 kts 181°
2026-04-25 08:36 42.64449 -76.16926 8907 ft 206 kts 181°
2026-04-25 08:36 42.63015 -76.16827 8906 ft 206 kts 181°
2026-04-25 08:36 42.61583 -76.16729 8904 ft 206 kts 181°
2026-04-25 08:37 42.60155 -76.16633 8901 ft 205 kts 181°
2026-04-25 08:37 42.58731 -76.16536 8892 ft 205 kts 182°
2026-04-25 08:37 42.57290 -76.16440 8893 ft 204 kts 182°
2026-04-25 08:37 42.55874 -76.16344 8894 ft 204 kts 182°
2026-04-25 08:38 42.54455 -76.16248 8893 ft 204 kts 181°
2026-04-25 08:38 42.53040 -76.16153 8892 ft 203 kts 182°
2026-04-25 08:38 42.51623 -76.16056 8894 ft 204 kts 181°
2026-04-25 08:38 42.50210 -76.15960 8892 ft 204 kts 182°
2026-04-25 08:39 42.48799 -76.15866 8894 ft 202 kts 182°
2026-04-25 08:39 42.47388 -76.15771 8895 ft 203 kts 182°
2026-04-25 08:39 42.45997 -76.15676 8895 ft 203 kts 182°
2026-04-25 08:39 42.44586 -76.15582 8895 ft 203 kts 181°
2026-04-25 08:40 42.43174 -76.15487 8897 ft 204 kts 182°
2026-04-25 08:40 42.41758 -76.15391 8895 ft 204 kts 181°
2026-04-25 08:40 42.40345 -76.15296 8895 ft 204 kts 181°
2026-04-25 08:40 42.38927 -76.15201 8896 ft 204 kts 181°
2026-04-25 08:41 42.37514 -76.15105 8891 ft 203 kts 182°
2026-04-25 08:41 42.36101 -76.15011 8891 ft 203 kts 181°
2026-04-25 08:41 42.34689 -76.14916 8892 ft 203 kts 182°
2026-04-25 08:41 42.33275 -76.14820 8889 ft 203 kts 182°
2026-04-25 08:42 42.31862 -76.14725 8889 ft 203 kts 182°
2026-04-25 08:42 42.30454 -76.14631 8888 ft 202 kts 182°
2026-04-25 08:42 42.29049 -76.14536 8889 ft 202 kts 182°
2026-04-25 08:42 42.27647 -76.14442 8889 ft 201 kts 182°
2026-04-25 08:43 42.26246 -76.14350 8893 ft 202 kts 182°
2026-04-25 08:43 42.24835 -76.14255 8891 ft 203 kts 182°
2026-04-25 08:43 42.23420 -76.14160 8893 ft 204 kts 182°
2026-04-25 08:43 42.22000 -76.14064 8893 ft 204 kts 182°
2026-04-25 08:44 42.20580 -76.13970 8894 ft 204 kts 182°
2026-04-25 08:44 42.19162 -76.13875 8895 ft 204 kts 182°
2026-04-25 08:44 42.17734 -76.13779 8884 ft 205 kts 182°
2026-04-25 08:44 42.16314 -76.13684 8877 ft 205 kts 182°
2026-04-25 08:45 42.14917 -76.13253 8878 ft 209 kts 162°
2026-04-25 08:45 42.13562 -76.12528 8881 ft 209 kts 162°
2026-04-25 08:45 42.12202 -76.11827 8882 ft 209 kts 163°
2026-04-25 08:45 42.10840 -76.11130 8883 ft 209 kts 163°
2026-04-25 08:46 42.09477 -76.10434 8883 ft 210 kts 163°
2026-04-25 08:46 42.08116 -76.09738 8883 ft 210 kts 163°
2026-04-25 08:46 42.06768 -76.09048 8885 ft 210 kts 163°
2026-04-25 08:46 42.05384 -76.08341 8885 ft 210 kts 163°
2026-04-25 08:47 42.04014 -76.07642 8884 ft 211 kts 163°
2026-04-25 08:47 42.02645 -76.06942 8892 ft 211 kts 163°
2026-04-25 08:47 42.01269 -76.06240 8892 ft 211 kts 163°
2026-04-25 08:47 41.99900 -76.05542 8891 ft 211 kts 163°
2026-04-25 08:48 41.98530 -76.04842 8892 ft 210 kts 163°
2026-04-25 08:48 41.97165 -76.04147 8894 ft 210 kts 163°
2026-04-25 08:48 41.95799 -76.03451 8891 ft 210 kts 163°
2026-04-25 08:48 41.94440 -76.02759 8893 ft 208 kts 163°
2026-04-25 08:49 41.93081 -76.02067 8891 ft 209 kts 163°
2026-04-25 08:49 41.91719 -76.01375 8892 ft 209 kts 163°
2026-04-25 08:49 41.90361 -76.00683 8891 ft 209 kts 163°
2026-04-25 08:49 41.89001 -75.99993 8891 ft 209 kts 163°
2026-04-25 08:50 41.87640 -75.99300 8891 ft 209 kts 163°
2026-04-25 08:50 41.86281 -75.98610 8892 ft 209 kts 163°
2026-04-25 08:50 41.84916 -75.97918 8894 ft 210 kts 163°
2026-04-25 08:50 41.83550 -75.97225 8893 ft 210 kts 163°
2026-04-25 08:51 41.82184 -75.96531 8884 ft 209 kts 163°
2026-04-25 08:51 41.80827 -75.95845 8889 ft 208 kts 163°
2026-04-25 08:51 41.79470 -75.95156 8885 ft 209 kts 163°
2026-04-25 08:51 41.78110 -75.94467 8887 ft 209 kts 163°
2026-04-25 08:52 41.76750 -75.93780 8891 ft 209 kts 163°
2026-04-25 08:52 41.75388 -75.93090 8891 ft 210 kts 163°
2026-04-25 08:52 41.74022 -75.92401 8889 ft 210 kts 163°
2026-04-25 08:52 41.72655 -75.91708 8889 ft 210 kts 163°
2026-04-25 08:53 41.71284 -75.91015 8892 ft 211 kts 163°
2026-04-25 08:53 41.69914 -75.90323 8892 ft 211 kts 163°
2026-04-25 08:53 41.68557 -75.89639 8893 ft 211 kts 163°
2026-04-25 08:53 41.67172 -75.88939 8894 ft 210 kts 163°
2026-04-25 08:54 41.65803 -75.88249 8894 ft 210 kts 163°
2026-04-25 08:54 41.64438 -75.87561 8893 ft 210 kts 163°
2026-04-25 08:54 41.63069 -75.86871 8894 ft 210 kts 163°
2026-04-25 08:54 41.61700 -75.86182 8893 ft 210 kts 163°
2026-04-25 08:55 41.60330 -75.85491 8893 ft 211 kts 163°
2026-04-25 08:55 41.58959 -75.84801 8893 ft 210 kts 163°
2026-04-25 08:55 41.57606 -75.84122 8894 ft 211 kts 163°
2026-04-25 08:55 41.56217 -75.83423 8894 ft 211 kts 163°
2026-04-25 08:56 41.54862 -75.82742 8892 ft 211 kts 163°
2026-04-25 08:56 41.53491 -75.82053 8893 ft 211 kts 163°
2026-04-25 08:56 41.52099 -75.81355 8888 ft 211 kts 163°
2026-04-25 08:56 41.50728 -75.80665 8889 ft 210 kts 163°
2026-04-25 08:57 41.49359 -75.79979 8890 ft 211 kts 163°
2026-04-25 08:57 41.48003 -75.79300 8907 ft 210 kts 163°
2026-04-25 08:57 41.46637 -75.78615 8907 ft 210 kts 163°
2026-04-25 08:57 41.45266 -75.77927 8909 ft 210 kts 163°
2026-04-25 08:58 41.43903 -75.77245 8909 ft 210 kts 163°
2026-04-25 08:58 41.42534 -75.76561 8910 ft 210 kts 163°
2026-04-25 08:58 41.41162 -75.75874 8912 ft 211 kts 163°
2026-04-25 08:58 41.39755 -75.75532 8911 ft 202 kts 195°
2026-04-25 08:59 41.38438 -75.76102 8846 ft 199 kts 207°
2026-04-25 08:59 41.37142 -75.76775 8749 ft 201 kts 207°
2026-04-25 08:59 41.35807 -75.77393 8656 ft 204 kts 203°
2026-04-25 08:59 41.34445 -75.77933 8577 ft 205 kts 202°
2026-04-25 09:00 41.33073 -75.78466 8501 ft 205 kts 202°
2026-04-25 09:00 41.31692 -75.79013 8359 ft 208 kts 202°
2026-04-25 09:00 41.30300 -75.79565 8217 ft 209 kts 202°
2026-04-25 09:00 41.28906 -75.80118 8081 ft 208 kts 202°
2026-04-25 09:01 41.27521 -75.80667 7948 ft 207 kts 202°
2026-04-25 09:01 41.26146 -75.81211 7806 ft 206 kts 202°
2026-04-25 09:01 41.24779 -75.81752 7668 ft 205 kts 202°
2026-04-25 09:01 41.23414 -75.82293 7537 ft 204 kts 202°
2026-04-25 09:02 41.22059 -75.82827 7393 ft 203 kts 202°
2026-04-25 09:02 41.20712 -75.83362 7253 ft 202 kts 202°
2026-04-25 09:02 41.19367 -75.83893 7116 ft 201 kts 201°
2026-04-25 09:02 41.18031 -75.84420 6970 ft 200 kts 202°
2026-04-25 09:03 41.16701 -75.84946 6835 ft 199 kts 202°
2026-04-25 09:03 41.15377 -75.85469 6703 ft 198 kts 202°
2026-04-25 09:03 41.14061 -75.85988 6559 ft 197 kts 202°
2026-04-25 09:03 41.12752 -75.86503 6424 ft 196 kts 201°
2026-04-25 09:04 41.11448 -75.87018 6268 ft 195 kts 202°
2026-04-25 09:04 41.10152 -75.87528 6085 ft 195 kts 202°
2026-04-25 09:04 41.08855 -75.88041 5924 ft 194 kts 202°
2026-04-25 09:04 41.07563 -75.88549 5778 ft 193 kts 202°
2026-04-25 09:05 41.06275 -75.89057 5597 ft 194 kts 201°
2026-04-25 09:05 41.04986 -75.89563 5380 ft 191 kts 201°
2026-04-25 09:05 41.03717 -75.90062 5162 ft 189 kts 201°
2026-04-25 09:05 41.02465 -75.90553 4936 ft 186 kts 201°
2026-04-25 09:06 41.01231 -75.91039 4692 ft 184 kts 199°
2026-04-25 09:06 41.00010 -75.91520 4458 ft 182 kts 198°
2026-04-25 09:06 40.98796 -75.91996 4230 ft 181 kts 197°
2026-04-25 09:06 40.97599 -75.92466 3980 ft 178 kts 195°
2026-04-25 09:07 40.96430 -75.92927 3900 ft 169 kts 194°
2026-04-25 09:07 40.95332 -75.93355 3898 ft 160 kts 194°
2026-04-25 09:07 40.94301 -75.93758 3926 ft 155 kts 194°
2026-04-25 09:07 40.93248 -75.94169 3930 ft 156 kts 194°
2026-04-25 09:08 40.92196 -75.94579 3930 ft 158 kts 194°
2026-04-25 09:08 40.91140 -75.94993 3925 ft 159 kts 194°
2026-04-25 09:08 40.90078 -75.95410 3927 ft 160 kts 194°
2026-04-25 09:08 40.89002 -75.95831 3926 ft 162 kts 194°
2026-04-25 09:09 40.87920 -75.96254 3931 ft 163 kts 195°
2026-04-25 09:09 40.86830 -75.96681 3930 ft 164 kts 195°
2026-04-25 09:09 40.85739 -75.97107 3922 ft 162 kts 195°
2026-04-25 09:09 40.84659 -75.97531 3925 ft 162 kts 195°
2026-04-25 09:10 40.83944 -75.97810 3927 ft 162 kts 195°
2026-04-25 09:10 40.82860 -75.98232 3926 ft 163 kts 195°
2026-04-25 09:10 40.81422 -75.98794 3928 ft 162 kts 194°
2026-04-25 09:10 40.80342 -75.99215 3925 ft 160 kts 195°
2026-04-25 09:11 40.78535 -75.99920 3930 ft 163 kts 195°
2026-04-25 09:11 40.77444 -76.00346 3912 ft 163 kts 195°
2026-04-25 09:11 40.76357 -76.00771 3916 ft 163 kts 195°
2026-04-25 09:12 40.75267 -76.01196 3915 ft 163 kts 194°
2026-04-25 09:12 40.74180 -76.01618 3918 ft 163 kts 195°
2026-04-25 09:12 40.73093 -76.02042 3916 ft 163 kts 194°
2026-04-25 09:12 40.72006 -76.02466 3913 ft 163 kts 195°
2026-04-25 09:13 40.70921 -76.02887 3911 ft 162 kts 195°
2026-04-25 09:13 40.69837 -76.03309 3914 ft 163 kts 195°
2026-04-25 09:13 40.68746 -76.03733 3912 ft 164 kts 195°
2026-04-25 09:13 40.67661 -76.04157 3913 ft 162 kts 195°
2026-04-25 09:14 40.66575 -76.04578 3908 ft 163 kts 195°
2026-04-25 09:14 40.65473 -76.05007 3817 ft 167 kts 195°
2026-04-25 09:14 40.64357 -76.05440 3729 ft 167 kts 194°
2026-04-25 09:14 40.63246 -76.05871 3647 ft 166 kts 194°
2026-04-25 09:15 40.62142 -76.06303 3550 ft 165 kts 194°
2026-04-25 09:15 40.61042 -76.06751 3477 ft 165 kts 195°
2026-04-25 09:15 40.59946 -76.07204 3395 ft 163 kts 194°
2026-04-25 09:15 40.58878 -76.07655 3397 ft 160 kts 194°
2026-04-25 09:16 40.57829 -76.08100 3396 ft 157 kts 195°
2026-04-25 09:16 40.56804 -76.08536 3394 ft 152 kts 195°
2026-04-25 09:16 40.55809 -76.08957 3400 ft 151 kts 194°
2026-04-25 09:16 40.54813 -76.09382 3393 ft 149 kts 195°
2026-04-25 09:17 40.52792 -76.10109 3416 ft 151 kts 187°
2026-04-25 09:17 40.51761 -76.10355 3406 ft 150 kts 187°
2026-04-25 09:17 40.50737 -76.10587 3353 ft 149 kts 186°
2026-04-25 09:18 40.49705 -76.10822 3240 ft 152 kts 187°
2026-04-25 09:18 40.48661 -76.11059 3113 ft 153 kts 187°
2026-04-25 09:18 40.47607 -76.11277 2990 ft 153 kts 185°
2026-04-25 09:18 40.46558 -76.11460 2896 ft 151 kts 181°
2026-04-25 09:19 40.45522 -76.11440 2806 ft 148 kts 171°
2026-04-25 09:19 40.44564 -76.11035 2723 ft 144 kts 148°
2026-04-25 09:19 40.43886 -76.10052 2549 ft 148 kts 122°
2026-04-25 09:19 40.43435 -76.08895 2299 ft 138 kts 120°
2026-04-25 09:20 40.43022 -76.07798 2066 ft 132 kts 120°
2026-04-25 09:20 40.42594 -76.06832 1922 ft 115 kts 124°
2026-04-25 09:20 40.42163 -76.05973 1692 ft 111 kts 125°
2026-04-25 09:20 40.41716 -76.05135 1450 ft 113 kts 124°
2026-04-25 09:21 40.41310 -76.04270 1343 ft 111 kts 120°
2026-04-25 09:21 40.40924 -76.03369 1193 ft 116 kts 120°
2026-04-25 09:21 40.40507 -76.02477 1105 ft 111 kts 120°
2026-04-25 09:21 40.40120 -76.01636 1002 ft 103 kts 117°
2026-04-25 09:22 40.39783 -76.00885 875 ft 90 kts 118°
2026-04-25 09:22 40.39482 -76.00200 735 ft 84 kts 119°
2026-04-25 09:22 40.39183 -75.99554 623 ft 82 kts 119°
2026-04-25 09:22 40.38881 -75.98923 559 ft 80 kts 119°
2026-04-25 09:23 40.38595 -75.98315 461 ft 77 kts 116°
2026-04-25 09:23 40.38315 -75.97705 360 ft 74 kts 118°
2026-04-25 09:23 40.38080 -75.97209 337 ft 53 kts 119°
2026-04-25 09:23 40.37965 -75.96958 336 ft 20 kts 122°
2026-04-25 09:24 40.37921 -75.96842 337 ft 9 kts 104°
2026-04-25 09:24 40.37895 -75.96789 337 ft 9 kts 130°
2026-04-25 09:24 40.37849 -75.96702 334 ft 13 kts 139°
2026-04-25 09:24 40.37789 -75.96704 332 ft 10 kts 209°
2026-04-25 09:25 40.37731 -75.96761 329 ft 7 kts 229°
2026-04-25 09:25 40.37739 -75.96827 331 ft 10 kts 301°
2026-04-25 09:25 40.37779 -75.96918 337 ft 14 kts 299°
2026-04-25 09:25 40.37831 -75.97035 338 ft 13 kts 299°
2026-04-25 09:26 40.37810 -75.97112 336 ft 13 kts 218°
2026-04-25 09:26 40.37750 -75.97158 333 ft 2 kts 192°
2026-04-25 09:26 40.37748 -75.97159 333 ft 0 kts 188°